www.pogodaiklimat.ru

Погода и климат >> Архив погоды >> Иран >> Ferdous


ПОГОДА в Ferdous

  • Прогноз погоды в Ferdous
  • Монитор погоды в Ferdous
  • Климат города

АРХИВ ПОГОДЫ в Ferdous

Время (UTC), дата Ветер
(напр.,м/с)
 
Видим.   Явления Облачность Т
(С)
Тd
(С)
f
(%)
Тe
(С)
Тes
(С)
Комфортность P
(гПа)
Po
(гПа)
Тmin
(С)
Tmax
(С)
R
(мм)
R24
(мм)
S
(см)
03 9.07 СВ 3 10 км ясно +30.2 +1.5 16 +28 +30 жарко 999.2 867.1 +27.9
06 9.07 СВ 6 15 км ясно +33.0 -0.3 12 +30 +36 жарко 999.9 867.4
09 9.07 СВ 5 12 км ясно +36.5 -2.9 8 +32 +43 жарко 998.1 866.1
12 9.07 СВ 9 8000 м пыльный позёмок ясно +37.1 -3.6 7 +33 +34 жарко 996.9 865.0
15 9.07 СВ 7 6000 м пыльный позёмок ясно +34.8 -1.5 10 +31 +31 жарко 997.9 865.7 +37.5
18 9.07 СВ 3 12 км ясно +30.8 -0.5 13 +28 +28 жарко 999.6 867.1
21 9.07 штиль 0 12 км ясно +27.8 +0.9 17 +26 +26 жарко 999.4 866.9
00 10.07 СВ 3 15 км ясно +27.9 +5.1 23 +27 +27 жарко 999.4 867.1
03 10.07 СВ 2 10 км ясно +29.3 +8.2 27 +29 +32 жарко 1000.6 868.2 +27.5
06 10.07 В 7 10 км ясно +33.5 +3.1 15 +31 +35 жарко 1000.7 868.2
09 10.07 СВ 8 10 км ясно +35.7 +3.8 14 +33 +36 жарко 999.6 867.0
12 10.07 СВ 7 7000 м пыльный позёмок ясно +36.6 +3.7 13 +34 +36 очень
жарко
998.3 866.1
15 10.07 СВ 6 10 км ясно +35.0 +4.5 15 +32 +32 жарко 998.7 866.4 +36.9
18 10.07 СВ 6 12 км ясно +31.9 +4.1 17 +29 +29 жарко 999.9 867.7
21 10.07 З 6 12 км ясно +29.1 +5.4 22 +28 +28 жарко 1000.0 867.9
00 11.07 З 5 12 км ясно +27.9 +4.5 22 +26 +26 жарко 999.8 867.4
03 11.07 СВ 6 12 км ясно +29.1 +3.7 20 +27 +29 жарко 1000.0 867.5 +26.7
06 11.07 СВ 6 12 км ясно +33.6 +3.2 15 +31 +37 жарко 1000.1 867.8
09 11.07 СВ 5 15 км ясно +34.8 +2.7 13 +32 +42 жарко 999.5 867.0
12 11.07 СВ 5 15 км ясно +36.0 -1.5 9 +32 +36 жарко 998.2 865.8
15 11.07 СВ 4 12 км ясно +33.6 -1.4 11 +30 +30 жарко 998.6 865.8 +36.5
18 11.07 СВ 5 10 км ясно +29.4 -1.0 14 +27 +27 жарко 1000.1 867.2
21 11.07 СВ 2 10 км ясно +26.7 +0.7 18 +25 +25 комфорт 999.9 867.1
00 12.07 СВ 3 10 км ясно +25.1 -1.0 18 +23 +23 комфорт 999.5 867.2
03 12.07 СВ 5 10 км ясно +27.8 +1.8 19 +26 +28 жарко 1000.4 867.2 +24.8
06 12.07 СВ 3 12 км ясно +30.3 +2.6 17 +28 +42 жарко 1000.8 867.3
09 12.07 СВ 4 12 км ясно +33.4 +0.3 12 +30 +44 жарко 998.9 865.7
12 12.07 СВ 5 12 км ясно +35.0 -2.8 9 +31 +35 жарко 997.2 864.2
15 12.07 СВ 8 12 км ясно +33.0 -4.0 9 +29 +29 жарко 997.3 864.3 +35.4
18 12.07 СВ 5 10 км ясно +29.5 -0.1 15 +27 +27 жарко 998.7 865.4
21 12.07 С 2 10 км ясно +26.0 -1.2 17 +24 +24 комфорт 999.0 865.6
00 13.07 СВ 3 10 км ясно +24.9 -2.0 17 +23 +23 комфорт 998.2 864.9
03 13.07 СВ 4 12 км ясно +26.6 -0.9 16 +24 +27 комфорт 998.1 864.8 +23.8
06 13.07 штиль 0 15 км ясно +31.6 -2.1 11 +28 +50 жарко 997.5 864.5
09 13.07 СВ 4 15 км ясно +34.3 -4.2 8 +30 +44 жарко 996.1 863.2
12 13.07 СВ 6 15 км ясно +36.2 -4.8 7 +32 +35 жарко 994.5 861.9
15 13.07 СВ 5 15 км ясно +34.1 -4.8 8 +30 +30 жарко 994.8 862.1 +36.8
18 13.07 СВ 4 15 км ясно +30.6 -2.2 12 +27 +27 жарко 996.1 863.4
21 13.07 штиль 0 15 км ясно +24.6 -1.7 17 +23 +23 комфорт 997.0 863.7
00 14.07 штиль 0 15 км ясно +23.2 -1.3 20 +22 +22 комфорт 996.3 863.2
03 14.07 ЮВ 2 15 км ясно +25.4 +0.2 19 +24 +27 комфорт 996.5 863.5 +22.6
06 14.07 С 2 15 км ясно +32.8 +0.1 12 +29 +46 жарко 995.3 863.2
09 14.07 С 4 15 км ясно +35.3 -0.6 10 +32 +45 жарко 994.6 861.9
12 14.07 Ю 3 15 км ясно +37.5 0.0 9 +34 +41 очень
жарко
993.1 860.8
15 14.07 В 3 15 км ясно +36.0 -2.1 9 +32 +32 жарко 992.8 860.6 +38.4
18 14.07 В 2 15 км ясно +31.6 -0.6 13 +28 +28 жарко 993.3 861.7
21 14.07 СВ 5 15 км ясно +31.2 +3.7 18 +29 +29 жарко 992.3 861.4
00 15.07 СВ 4 15 км ясно +29.7 +3.6 19 +28 +28 жарко 992.1 861.2
03 15.07 СВ 3 15 км ясно +31.3 +3.7 17 +29 +32 жарко 993.0 862.1 +29.1
06 15.07 СВ 4 15 км ясно +35.5 -0.5 10 +32 +43 жарко 993.6 862.4
09 15.07 В 3 15 км 1/0
[Ac trans]
+37.3 +1.2 10 +34 +50 очень
жарко
991.9 861.3
12 15.07 ЮВ 3 15 км 4/4 1050 м
[Sc diur, vesp]
+38.7 +2.1 10 +35 +39 очень
жарко
990.3 859.9
15 15.07 В 4 15 км 4/3 1050 м
[Sc Ac trans]
+36.9 +2.1 11 +33 +33 жарко 990.2 859.8 +39.7
18 15.07 СВ 4 15 км ясно +33.8 +1.5 13 +31 +31 жарко 990.9 860.6
00 16.07 СВ 2 12 км 3/0
[Ac trans]
+30.6 +3.6 18 +28 +28 жарко 990.7 860.5

 

Местоположение метеостанции Ferdous (Иран): широта 34.02 долгота 58.17 высота над уровнем моря 1293 м.

В архиве по умолчанию представлена погода в Ferdous за последнюю неделю. Архивные данные за месяц целиком и за предыдущие месяцы, начиная с января 2011 года, Вы можете получить, выбрав интересующий диапазон дат из раскрывающегося списка и нажав кнопку "Ввод!".


*Определитесь, кто Вы:
робот инопланетянин человек

Внимание! Время в таблицах - всемирное. Для получения местного времени необходимо прибавить поправку, которая в Ferdous равна 3.5 ч.

Смотрите также архив погоды в соседних городах и на ближайших метеорологических станциях:

Погода в Tabas (Иран) (125 км)
Погода в Kashmar (Иран) (134 км)
Погода в Birjand (Иран) (160 км)
Погода в Torbat-Heydarieh (Иран) (169 км)
Погода в Sabzevar (Иран) (249 км)
Погода в Mashhad (Иран) (283 км)
Погода в Khor (Иран) (287 км)
Погода в Nehbandan (Иран) (327 км)
Погода в Quchan (Иран) (341 км)
Погода в Herat (Афганистан) (374 км)

Пояснения к столбцам:

Ветер - указаны скорость ветра в м/с - средняя за 10 мин, порывы в срок и между сроками (в фигурных скобках) и направление, откуда дует ветер: С - северный, СВ - северо-восточный, В - восточный, ЮВ - юго-восточный, Ю - южный, ЮЗ - юго-западный, З - западный, СЗ - северо-западный.
Видимость - горизонтальная дальность видимости в метрах или километрах. При видимости от 1 до 10 км при отсутствии осадков обычно наблюдается дымка, при ухудшении видимости до 1 км и менее - туман. В сухую погоду видимость может ухудшаться дымом, пылью или мглою.
Явления - указаны атмосферные явления, наблюдавшиеся в срок или в последний час перед сроком; фигурными скобками обозначены явления, наблюдавшиеся между сроками (за 1-3 часа до срока); квадратными скобками обозначены град или гололедные отложения с указанием их диаметра в мм.
Облачность - указаны через наклонную черту общая и нижняя облачность в баллах и высота нижней границы облаков в метрах; квадратными скобками обозначены формы облаков: Ci - перистые, Cs - перисто-слоистые, Cc - перисто-кучевые, Ac - высококучевые, As - высокослоистые, Sc - слоисто-кучевые, Ns - слоисто-дождевые, Cu - кучевые, Cb - кучево-дождевые. Подробнее классификацию облаков см. в Атласе облаков (PDF).
T - Температура воздуха - температура, измеренная на высоте 2 м над землей.
Td - Температура точки росы - температура, при понижении до которой содержащийся в воздухе водяной пар достигнет насыщения.
f - Относительная влажность воздуха - влажноcть воздуха, измеренная на высоте 2 м над землей.
Te - Эффективная температура - температура, которую ощущает одетый по сезону человек в тени. Характеристика душности погоды. При расчете учитывается влияние влажности воздуха и скорости ветра на теплоощущения человека.
Tes - Эффективная температура на солнце - температура, которую ощущает человек, с поправкой на солнечный нагрев. Характеристика знойности погоды. Зависит от высоты солнца над горизонтом, облачности и скорости ветра. Ночью, в пасмурную погоду, а также при ветре 12 м/с и более поправка равна нулю.
P - Атмосферное давление - приведенное к уровню моря атмосферное давление.
Po - Атмосферное давление - измеренное на уровне метеостанции атмосферное давление.
Tmin - Минимальная температура - минимум температуры воздуха на высоте 2 м над землей.
Tmax - Максимальная температура - максимум температуры воздуха на высоте 2 м над землей.
R - Количество осадков - Количество выпавших осадков за период времени, мм. При наведении курсора мыши на число - период времени, за который выпало указанное количество осадков.
R24 - Количество осадков - Количество выпавших осадков за 24 часа, мм.
S - Снежный покров - Высота снежного покрова, см. При наведении курсора мыши на число - состояние снежного покрова и степень покрытия местности в баллах.